This demonstration page uses our WeatherBlox Daily Observations layout. Learn more.

Left ArrowRight Arrow

Hourly Observations for November 24, 2022

Temp ( °F °C ) Dew Point ( °F °C ) Humidity (%) Winds ( mph kmh ) Pressure ( in mb ) Visibility ( mi km ) Precip ( " mm )
12:53 am 00:53 Cloudy with Drizzle 49 9.4 48 8.9 97 97 SE 9 15 29.97 1015 1 2 0.01 0.13
1:34 am 01:34 Cloudy with Drizzle 49 9.4 48 8.9 97 97 SE 7 11 29.99 1015 1 1 0.01 0.13
1:53 am 01:53 Mostly Clear with Drizzle 48 8.9 48 8.9 100 100 SSE 7 11 29.98 1015 0 0 0.01 0.13
2:53 am 02:53 Cloudy with Mist and Fog 48 8.9 48 8.9 100 100 SE 7 11 29.99 1016 1 2 0.01 0.13
3:11 am 03:11 Cloudy with Mist and Fog 48 8.9 47 8.3 96 96 SE 9 15 30.02 1017 1 1 0.00 0.00
3:53 am 03:53 Mostly Clear with Mist and Fog 48 8.9 48 8.9 100 100 SE 5 7 30.00 1016 1 1 0.00 0.00
4:53 am 04:53 Mostly Clear with Fog 48 8.9 48 8.9 100 100 SSE 5 7 30.01 1016 1 1 0.00 0.00
5:53 am 05:53 Mostly Clear with Drizzle 48 8.9 47 8.3 96 96 Calm 30.03 1017 1 1 0.01 0.13
6:53 am 06:53 Cloudy with Drizzle 48 8.9 47 8.3 96 96 NW 6 9 30.06 1018 1 1 0.01 0.13
7:53 am 07:53 Cloudy with Mist and Fog 48 8.9 47 8.3 96 96 NE 9 15 30.08 1019 1 1 0.01 0.13
8:40 am 08:40 Cloudy with Mist and Fog 49 9.4 48 8.9 97 97 NNE 9 15 30.12 1020 2 3 0.00 0.00
8:53 am 08:53 Cloudy with Mist and Fog 49 9.4 48 8.9 97 97 NNE 9 15 30.11 1020 2 3 0.00 0.00
9:06 am 09:06 Cloudy with Mist and Fog 49 9.4 48 8.9 97 97 NNE 8 13 30.12 1020 3 5 0.00 0.00
9:24 am 09:24 Cloudy with Mist and Fog 50 10 48 8.9 93 93 NNE 10 17 30.12 1020 4 6 0.00 0.00
9:53 am 09:53 Cloudy with Mist and Fog 51 10.6 49 9.4 92 92 NNE 9 15 30.13 1020 4 6 0.00 0.00
10:53 am 10:53 Cloudy with Drizzle 51 10.6 47 8.3 86 86 N 13 20 30.16 1021 10 16 0.01 0.13
11:02 am 11:02 Cloudy with Drizzle 50 10 47 8.3 89 89 NNW 17 28 30.17 1022 8 13 0.01 0.13
11:08 am 11:08 Cloudy with Drizzle 48 8.9 46 7.8 93 93 NNW 14 22 30.18 1022 2 3 0.01 0.13
11:15 am 11:15 Cloudy with Drizzle 47 8.3 46 7.8 97 97 NNW 17 28 30.18 1022 2 3 0.01 0.13
11:53 am 11:53 Cloudy with Drizzle 46 7.8 44 6.7 93 93 N 17 28 30.15 1021 3 4 0.01 0.13
12:06 pm 12:06 Cloudy with Drizzle 46 7.8 44 6.7 93 93 N 15 24 30.16 1021 3 4 0.01 0.13
12:53 pm 12:53 Cloudy with Mist and Fog 47 8.3 43 6.1 86 86 NNW 18 30 30.14 1021 3 5 0.01 0.13
1:53 pm 13:53 Mostly Cloudy with Haze 47 8.3 39 3.9 74 74 NNW 16 26 30.16 1022 6 10 0.00 0.00
2:02 pm 14:02 Cloudy 48 8.9 39 3.9 71 71 NNW 17 28 30.18 1022 10 16 0.00 0.00
2:53 pm 14:53 Mostly Cloudy 48 8.9 38 3.3 68 68 NNW 16 26 30.19 1022 10 16 0.00 0.00
3:53 pm 15:53 Partly Cloudy 50 10 39 3.9 66 66 N 9 15 30.19 1022 10 16 0.00 0.00
4:53 pm 16:53 Partly Cloudy 50 10 33 0.6 52 52 N 16 26 30.20 1023 10 16 0.00 0.00
5:53 pm 17:53 Partly Cloudy 46 7.8 31 -0.6 55 55 N 12 19 30.21 1023 10 16 0.00 0.00
6:53 pm 18:53 Partly Cloudy 43 6.1 31 -0.6 62 62 N 8 13 30.22 1023 10 16 0.00 0.00
7:53 pm 19:53 Partly Cloudy 42 5.6 31 -0.6 64 64 N 7 11 30.24 1024 10 16 0.00 0.00
8:53 pm 20:53 Partly Cloudy 42 5.6 31 -0.6 64 64 N 13 20 30.25 1024 10 16 0.00 0.00
9:53 pm 21:53 Mostly Clear 41 5 31 -0.6 67 67 N 9 15 30.28 1025 10 16 0.00 0.00
10:53 pm 22:53 Mostly Clear 40 4.4 31 -0.6 70 70 N 9 15 30.29 1026 10 16 0.00 0.00
11:53 pm 23:53 Mostly Clear 38 3.3 30 -1.1 73 73 N 7 11 30.34 1027 10 16 0.00 0.00

Powered by AerisWeather